Theta_e
305 306 307 307 307 307 307 305 307 307 306 307 307 306 306 306 310 314 315 310 311 323 322 327 333 328 331 339 345 352 362 363 361 363 362 359 360 356 353 356 352 352 350 348 348
305 307 307 307 307 307 307 305 307 306 306 309 308 306 306 309 314 316 312 311 316 328 328 331 328 325 327 332 346 353 361 361 356 356 356 357 358 355 352 355 356 352 347 347 349
305 307 307 307 307 306 306 306 306 306 306 309 310 306 308 312 319 325 324 310 326 319 321 323 322 324 331 333 340 346 356 352 353 355 352 354 357 351 353 358 356 353 349 348 348
305 307 307 306 306 306 306 306 306 306 307 309 310 308 312 316 319 325 315 313 316 318 317 316 317 322 330 335 333 339 340 345 345 354 350 354 356 355 353 358 353 350 347 348 348
306 307 307 306 306 306 306 306 305 306 307 310 310 312 317 317 318 320 314 314 317 317 316 315 319 326 330 330 333 336 338 338 337 352 349 352 355 355 355 353 353 350 347 347 346
306 307 306 305 306 306 306 306 305 306 307 310 311 311 313 312 316 321 318 318 319 317 316 315 319 325 331 334 334 334 335 336 334 337 350 354 352 350 350 354 354 350 349 346 346
307 306 305 305 306 306 306 306 305 307 307 310 315 314 318 312 321 321 321 319 319 319 316 315 319 328 333 337 333 333 336 331 343 355 358 351 356 353 354 353 354 351 349 347 344
306 306 305 306 306 307 307 306 305 308 308 311 316 321 320 322 323 322 323 325 319 317 317 317 318 323 330 331 329 329 323 325 337 358 359 352 362 354 355 355 355 352 349 349 345
305 305 306 307 308 308 307 305 308 311 310 314 320 321 325 324 319 320 323 323 326 322 318 319 319 320 323 328 325 324 331 330 327 355 361 354 360 358 355 355 356 352 350 350 345
305 306 307 308 309 308 306 311 313 312 318 320 321 320 318 320 316 316 316 318 325 322 322 321 319 320 323 326 332 331 331 327 325 333 340 361 359 358 355 357 356 352 350 350 345
306 307 308 309 309 306 307 312 308 311 321 317 320 319 320 319 314 315 316 316 321 321 323 322 322 326 327 327 327 327 326 326 325 325 325 346 360 356 355 357 356 353 351 350 347
308 309 309 310 308 306 308 308 312 313 312 314 321 320 320 319 314 314 316 316 323 325 324 325 327 326 327 328 327 327 327 326 324 323 321 352 360 356 352 356 355 353 352 350 347
309 309 309 310 309 310 308 313 314 313 310 311 312 313 313 315 312 313 316 317 323 324 326 328 330 329 329 330 328 326 325 326 326 324 344 356 361 358 354 350 345 348 347 349 348
309 310 310 309 310 310 312 314 314 311 308 311 314 313 312 311 312 314 317 315 316 324 326 328 328 328 328 329 326 328 324 326 325 321 322 327 323 357 356 355 352 347 349 347 349
310 310 310 310 310 311 314 315 315 310 316 316 312 313 309 311 312 314 314 313 315 315 316 321 319 328 327 326 325 326 325 324 323 320 319 320 322 328 357 359 354 350 350 347 347
311 311 311 310 310 314 314 315 314 310 317 313 313 312 311 311 312 313 313 312 313 314 313 315 316 318 320 324 324 324 323 317 314 316 320 319 319 320 355 358 353 349 348 348 348
313 313 312 309 311 311 314 311 313 316 315 318 312 311 310 311 312 313 313 311 311 311 311 312 313 313 314 315 315 315 316 318 321 320 321 316 319 320 335 347 351 349 348 346 349
315 314 315 315 314 314 313 311 317 318 316 315 316 312 314 312 311 312 311 310 312 309 310 312 313 314 314 314 315 314 315 318 323 321 320 316 321 321 320 331 343 345 345 345 349
316 315 317 317 317 315 311 314 315 315 314 315 315 316 315 315 314 313 313 313 313 311 312 313 315 313 315 313 313 314 313 316 316 316 319 319 320 322 328 331 339 342 343 345 348
318 318 316 313 317 314 312 315 314 313 313 314 315 314 315 315 315 313 313 313 314 312 309 313 314 312 314 313 313 312 312 315 313 322 324 320 322 321 329 330 329 330 341 343 340
317 313 314 315 315 311 318 314 313 312 313 313 313 313 313 313 313 313 313 313 313 313 310 310 310 312 312 313 314 311 312 310 309 314 319 321 321 323 328 328 328 328 332 334 331
313 311 314 313 311 306 309 311 312 310 310 311 311 310 312 311 311 311 313 312 314 312 313 310 307 312 313 310 311 311 312 309 313 315 313 316 320 322 322 324 328 332 340 344 340
313 313 313 313 311 308 310 311 311 310 309 310 310 310 309 310 312 311 313 312 314 314 314 312 308 311 311 310 310 311 312 310 308 306 312 314 316 315 316 321 327 333 335 338 344
308 310 307 305 304 309 310 310 312 311 310 309 309 308 309 309 307 311 311 311 311 314 319 310 306 309 311 313 311 314 314 311 309 310 312 313 314 314 314 318 322 325 337 339 341
306 310 308 310 309 308 308 310 311 312 309 308 310 310 310 310 309 310 309 308 309 310 310 308 311 314 312 311 313 313 313 314 312 312 314 313 313 313 314 320 327 328 328 337 345
312 311 306 306 307 307 307 310 312 312 311 311 311 311 310 311 311 312 310 309 309 307 306 306 312 313 312 312 312 311 310 311 312 312 312 312 313 321 322 325 324 324 326 332 334
313 312 306 308 308 310 310 312 313 311 310 310 311 309 311 312 310 308 306 306 308 309 307 308 308 308 311 311 310 306 312 313 313 315 314 315 319 320 320 321 323 321 323 330 331
Wind_Speed
22 22 23 23 23 23 23 23 20 16 16 15 14 13 12 11 10 5 7 8 13 12 18 18 12 7 9 3 4 4 2 2 3 3 2 4 2 4 7 7 1 3 7 21 28
23 23 24 24 24 24 22 21 20 16 17 17 14 12 8 8 8 10 9 15 17 20 21 18 7 9 3 5 4 3 2 6 5 3 4 9 5 7 4 5 2 13 22 28 29
24 24 24 24 25 24 23 22 20 15 16 15 13 8 5 6 3 6 3 20 25 20 16 14 13 6 2 3 4 5 5 4 4 8 14 6 9 12 10 6 3 17 23 23 28
25 26 27 26 26 25 23 22 19 15 16 12 10 6 2 2 2 1 8 24 23 16 12 10 4 7 5 5 5 3 11 11 4 11 11 14 15 7 10 2 6 17 19 22 21
25 27 28 28 27 26 24 23 19 13 13 8 7 2 1 1 8 6 15 24 19 18 14 6 6 5 5 4 3 5 9 6 7 12 14 14 9 6 13 6 6 14 20 18 16
28 28 28 28 28 27 27 23 19 12 9 6 3 1 1 3 1 11 18 23 18 18 11 9 9 8 3 3 4 4 5 10 10 9 10 10 7 2 4 7 12 17 22 19 17
28 29 29 28 27 28 28 24 17 11 6 3 1 4 0 10 1 14 18 19 23 25 7 17 6 4 2 3 4 8 10 8 2 10 7 12 5 1 6 6 13 14 20 18 19
28 29 28 28 28 28 28 24 16 11 5 4 4 4 6 3 1 12 16 6 15 19 8 20 12 1 2 3 5 3 4 3 3 9 7 4 4 4 7 7 11 16 19 20 19
28 28 28 27 28 28 27 22 14 5 8 8 6 3 8 7 5 12 21 9 15 15 16 9 11 5 1 1 4 6 1 1 3 11 7 5 4 15 12 15 13 16 18 18 17
27 28 28 30 29 27 24 8 8 11 9 5 2 1 6 2 4 5 16 15 4 8 4 4 3 4 2 4 4 2 1 2 2 4 5 8 9 10 14 18 20 18 17 17 18
27 28 30 31 28 23 18 3 3 2 5 7 5 3 4 10 4 5 9 8 5 4 5 4 4 5 7 7 6 3 3 3 4 6 2 9 8 17 10 13 17 21 18 19 19
28 28 33 30 25 10 3 2 0 2 6 9 7 6 13 4 4 3 7 5 4 5 4 5 4 8 3 6 5 3 3 4 6 6 3 3 7 7 4 5 17 24 18 16 17
29 30 33 29 7 3 7 5 21 7 2 6 6 5 5 10 5 3 5 3 4 5 4 5 4 4 3 1 1 2 5 3 6 6 5 6 4 5 2 2 2 4 5 10 15
29 31 28 24 2 10 4 19 22 2 4 5 3 5 4 5 0 2 4 4 2 8 6 4 3 6 5 5 6 4 8 6 4 3 1 2 3 6 12 6 9 10 7 7 14
31 26 22 8 8 3 10 22 14 3 4 0 1 2 3 5 4 4 2 4 5 3 6 6 2 4 4 8 8 9 6 6 5 4 4 3 3 4 9 11 18 19 14 11 12
29 22 16 2 6 5 18 14 3 4 3 2 2 3 5 2 2 3 4 6 2 4 2 4 2 3 6 5 9 6 2 6 5 4 2 6 5 5 5 15 15 17 17 13 12
18 14 6 3 2 10 18 4 4 4 6 7 3 2 3 2 1 2 2 6 3 4 3 5 4 4 6 2 5 6 6 2 3 1 5 4 4 8 8 11 18 23 23 17 17
13 6 7 8 11 14 7 5 8 5 4 5 4 5 5 4 7 7 5 7 9 6 4 3 3 6 8 2 1 2 6 5 5 3 3 4 5 2 7 12 8 17 17 13 18
7 6 7 9 7 3 4 6 1 3 5 7 3 7 8 6 5 5 7 7 5 6 5 2 3 5 5 6 2 3 4 2 7 3 3 2 5 3 8 14 11 4 5 9 17
6 6 10 21 7 5 5 5 3 7 6 5 5 7 6 8 5 5 6 6 6 10 0 1 2 2 5 5 8 6 2 2 4 4 4 4 3 2 7 8 8 9 7 5 7
5 4 22 5 1 5 4 3 4 8 7 7 4 5 3 4 5 4 7 3 8 5 9 3 3 5 2 6 4 6 5 5 4 4 4 3 3 2 3 5 7 9 8 11 12
3 4 24 3 4 2 3 4 5 10 6 7 5 5 4 7 7 5 6 8 13 4 4 5 4 3 3 7 7 15 4 4 4 4 1 1 2 6 9 7 6 9 11 14 12
3 1 15 7 4 3 5 6 8 10 7 5 8 6 6 5 5 4 5 7 14 5 2 3 4 3 5 6 8 7 6 4 4 3 2 2 3 13 11 8 10 12 13 13 15
3 4 5 5 2 6 4 6 3 7 7 6 4 5 6 7 7 4 4 7 8 9 13 6 4 4 5 3 3 2 3 5 5 4 3 4 7 13 17 10 12 14 15 14 10
4 0 2 3 6 5 5 3 4 5 4 6 5 6 2 4 3 3 4 6 4 11 6 5 3 2 4 5 3 4 2 2 3 3 4 6 6 11 10 12 11 11 13 16 13
3 3 4 2 1 6 6 4 4 3 3 3 5 5 6 4 3 1 2 2 1 6 5 5 2 2 3 5 3 1 3 6 7 7 6 5 9 6 7 12 15 16 14 11 11
5 3 4 5 3 4 2 2 1 2 6 2 4 3 3 3 5 6 6 3 2 2 3 3 4 3 3 6 8 5 4 3 1 1 4 7 2 7 7 11 12 16 16 15 12
Wind_Direction
352 351 351 349 349 349 348 346 342 333 331 328 322 315 310 306 308 266 235 221 194 176 174 168 184 193 171 179 228 205 289 258 170 172 123 105 70 10 350 277 221 298 128 144 140
350 349 349 346 345 344 344 346 342 334 332 328 326 324 318 307 303 240 257 184 160 147 157 157 168 163 154 186 200 185 203 220 219 98 147 140 120 110 12 308 107 86 118 139 137
347 346 345 344 342 341 340 342 342 333 332 328 337 330 326 330 308 247 261 170 159 159 163 162 154 152 171 163 205 199 231 192 133 110 137 111 144 152 179 257 228 146 146 144 147
345 343 341 341 338 337 336 337 339 332 328 321 333 338 337 337 152 332 135 158 164 174 160 143 115 150 168 201 205 260 233 249 111 137 140 158 160 177 194 294 236 158 158 147 156
343 341 339 338 336 334 332 333 335 330 331 319 331 334 24 296 250 179 153 162 162 165 171 151 145 162 178 200 184 249 274 262 247 169 161 143 183 169 199 196 243 170 161 156 162
340 337 336 335 334 332 329 328 329 322 327 315 331 201 159 268 162 171 164 167 177 179 183 175 175 188 188 229 192 234 276 267 263 227 141 157 137 236 198 180 186 167 166 165 170
337 334 334 333 332 330 327 324 320 308 304 287 7 147 183 238 257 184 173 180 187 189 163 199 178 163 177 280 279 245 272 287 150 135 145 129 121 240 122 129 171 186 172 165 176
336 334 334 332 331 329 324 321 310 292 252 190 134 143 244 208 233 187 190 183 198 195 176 199 195 159 215 297 334 291 62 48 133 149 155 151 124 181 145 151 186 189 179 179 173
335 336 335 330 330 330 324 324 307 264 167 153 142 153 269 302 205 229 211 197 191 195 207 159 161 196 237 148 14 -0 190 135 45 202 147 192 156 225 162 166 197 194 189 184 178
337 336 335 332 332 332 326 358 101 110 118 133 251 10 269 242 216 185 197 195 153 126 139 183 121 131 48 89 194 169 44 331 120 158 135 200 249 206 204 179 185 189 193 189 179
338 336 336 333 335 327 330 147 38 43 214 197 183 262 266 329 251 195 164 150 96 105 141 202 113 187 201 186 183 159 156 273 282 235 247 205 199 202 192 179 188 191 198 201 185
338 336 335 335 334 320 316 252 105 55 301 233 235 244 264 262 323 238 166 127 129 178 133 48 189 211 214 167 183 194 240 278 294 280 152 137 233 187 99 198 192 194 195 204 192
338 338 336 335 358 45 308 290 339 334 134 296 209 187 221 140 211 229 122 157 124 152 145 142 214 172 169 265 209 231 227 188 214 341 44 113 12 177 161 237 287 215 215 220 203
338 337 338 339 82 344 296 335 343 147 62 282 246 249 139 138 92 190 159 130 64 179 149 190 253 190 203 227 147 256 214 223 240 99 251 153 267 247 213 218 245 230 231 237 210
334 336 336 334 315 312 326 345 347 83 75 82 227 170 70 128 159 21 48 55 138 126 99 237 229 171 197 221 166 229 189 208 196 155 104 316 78 260 161 212 234 224 225 225 214
333 341 331 330 293 321 345 334 33 36 83 58 112 137 96 73 27 123 55 41 98 98 350 223 268 154 206 232 179 235 140 53 57 120 83 232 135 286 187 221 234 238 233 219 212
344 340 313 273 269 331 336 41 44 67 327 347 336 85 77 115 96 104 82 28 62 98 21 348 24 345 41 76 28 70 75 353 13 35 196 235 82 240 247 232 213 216 228 206 215
352 348 333 299 297 307 346 57 63 348 328 335 330 71 54 16 18 17 58 23 11 38 76 106 38 10 320 84 241 306 146 153 185 179 220 202 170 299 289 275 228 232 231 201 201
350 336 328 357 330 337 69 61 24 321 296 328 344 55 9 348 90 83 69 20 29 357 114 104 115 328 3 43 57 314 43 289 101 26 71 267 288 273 347 18 15 312 198 220 217
360 350 11 345 316 24 66 86 73 343 342 33 75 24 41 355 46 57 31 317 352 23 281 47 82 351 287 13 21 85 311 58 7 123 153 312 305 245 358 350 2 15 340 272 236
358 40 356 -0 71 45 79 84 51 353 31 50 34 60 67 8 37 54 7 38 349 351 51 18 75 295 33 25 349 11 8 16 110 93 145 135 288 300 302 342 342 326 315 289 242
31 42 353 81 50 24 36 354 43 356 7 48 70 71 51 28 30 70 68 15 341 344 50 336 121 56 90 329 110 82 79 92 97 326 33 225 100 356 315 331 353 357 357 346 284
80 280 355 49 89 32 357 50 56 28 14 43 20 40 33 40 86 49 56 345 7 47 43 321 17 41 19 351 11 43 15 54 85 64 66 81 283 336 334 348 348 3 8 9 8
75 31 346 34 37 106 67 16 43 30 42 54 22 52 43 27 18 70 52 358 357 19 41 80 64 119 171 182 216 359 10 72 97 74 295 225 302 325 329 350 340 349 5 12 37
30 4 195 358 9 62 69 28 21 15 27 28 30 50 70 53 47 70 15 348 6 359 23 81 98 111 190 220 221 199 158 99 118 177 151 265 298 308 323 337 343 340 347 43 43
85 62 16 44 352 47 15 351 47 4 55 14 99 91 70 100 142 181 60 55 15 356 44 358 136 46 322 328 329 281 254 218 200 204 223 228 283 7 345 355 357 354 344 355 38
36 59 98 322 18 66 320 353 15 105 28 106 135 87 75 179 199 210 196 187 194 39 33 70 112 78 293 324 328 49 59 58 151 46 238 209 318 334 360 342 -0 346 357 358 344